רגע לפני שאתם עוזבים...
יש לנו ב
הצעה מיוחד עבורכם!
מספר שירותים שכדאי שתכירו
| לוחית | שעת חיפוש | ||||
| 54125501 | מרצדס בנץ גרמנ | - | 2018 | 28/08/2026 | 15:09:46 |
| 4294831 | מיצובישי תאילנד | ATTRAGE | 2014 | 28/08/2026 | 15:09:44 |
| 6197033 | קיה קוריאה הדרומית | PICANTO | 2015 | 28/08/2026 | 15:09:42 |
| 90360001 | פורד ארהב" | - | 2017 | 28/08/2026 | 15:09:41 |
| 2847234 | מיצובישי תאילנד | SPACE STAR | 2015 | 28/08/2026 | 15:09:40 |
| 7871534 | ימהה תאילנד | - | 2016 | 28/08/2026 | 15:09:38 |
| 4458875 | פורד גרמניה | FOCUS | 2012 | 28/08/2026 | 15:09:37 |
| 1699933 | ניסאן יפן | INFINITI | 2015 | 28/08/2026 | 15:09:36 |
| 4507976 | מיצובישי יפן | LANCER | 2011 | 28/08/2026 | 15:09:35 |
| 8868273 | יונדאי הודו | I20 | 2010 | 28/08/2026 | 15:09:34 |
| 1570011 | יונדאי צ'כיה | I30 | 2013 | 28/08/2026 | 15:09:34 |
| 12605603 | ימהה יפן | - | 2022 | 28/08/2026 | 15:09:32 |
| 50296502 | קיה קוריאה הדרומית | STONIC | 2021 | 28/08/2026 | 15:09:31 |
| 8024176 | סקודה צ'כיה | ROOMSTER | 2011 | 28/08/2026 | 15:09:30 |
| 9669871 | ב מ וו ארהב" | - | 2010 | 28/08/2026 | 15:09:28 |
| 78885601 | הונדה יפן | HR-V | 2020 | 28/08/2026 | 15:09:28 |
| 85308202 | גילי סין | GEOMETRY C | 2022 | 28/08/2026 | 15:09:26 |
| 16117801 | יונדאי טורקיה | I10 | 2018 | 28/08/2026 | 15:09:26 |
| 4187533 | קיה קוריאה הדרומית | PICANTO | 2015 | 28/08/2026 | 15:09:24 |
| 50610602 | קיה סלובקיה | SPORTAGE | 2021 | 28/08/2026 | 15:09:22 |
| 17343802 | סיאט ספרד | ARONA | 2020 | 28/08/2026 | 15:09:21 |
| 30860101 | סקניה-הולנד | - | 2019 | 28/08/2026 | 15:09:18 |
| 1223575 | סיטרואן תורכיה | BERLINGO | 2011 | 28/08/2026 | 15:09:16 |
| 1175067 | פיאט טורקיה | DOBLO | 2009 | 28/08/2026 | 15:09:16 |
| 53466401 | יונדאי קוריאה הדרומית | IONIQ HYBRID | 2019 | 28/08/2026 | 15:09:14 |
| 12471503 | ימהה יפן | - | 2022 | 28/08/2026 | 15:09:13 |
| 13180103 | איווייס סין | U5 | 2022 | 28/08/2026 | 15:09:11 |
| 1046061 | שברולט ארהב" | MALIBU | 2006 | 28/08/2026 | 15:09:08 |
| 72780101 | קרייזלר ארהב" | GRAND CHEROKEE | 2019 | 28/08/2026 | 15:09:06 |
| 5375858 | פורשה גרמניה | CAYENNE | 2014 | 28/08/2026 | 15:09:06 |
| 3809380 | פולקסווגן פולין | CADDY MAXI D.V | 2017 | 28/08/2026 | 15:09:06 |
| 8108178 | יונדאי קוריאה הדרומית | VELOSTER | 2012 | 28/08/2026 | 15:09:04 |
| 9131287 | פיג'ו צרפת | 3008 | 2017 | 28/08/2026 | 15:09:04 |
| 1515451 | איסוזו יפן | IPPON | 2003 | 28/08/2026 | 15:09:00 |
| 4036111 | יונדאי קוריאה הדרומית | I25 | 2013 | 28/08/2026 | 15:08:58 |
| 56492501 | סובארו יפן | IMPREZA | 2018 | 28/08/2026 | 15:08:56 |
| 9131287 | פיג'ו צרפת | 3008 | 2017 | 28/08/2026 | 15:08:51 |
| 5520454 | סקודה צ'כיה | OCTAVIA | 2015 | 28/08/2026 | 15:08:51 |
| 40638704 | קיה קוריאה הדרומית | NIRO HEV | 2025 | 28/08/2026 | 15:08:46 |
| 1290030 | סובארו יפן | XV | 2014 | 28/08/2026 | 15:08:43 |
| 1071038 | סוזוקי תאילנד | CELERIO | 2016 | 28/08/2026 | 15:08:40 |
| 8108178 | יונדאי קוריאה הדרומית | VELOSTER | 2012 | 28/08/2026 | 15:08:40 |
| 4236230 | אלפא רומיאו איטליה | ALFA GIULIETTA | 2014 | 28/08/2026 | 15:08:37 |
| 1087031 | מרצדס גרמניה | A180 | 2014 | 28/08/2026 | 15:08:36 |
| 9052753 | איסוזו תאילנד | PICK-UP | 2014 | 28/08/2026 | 15:08:35 |
| 5375858 | פורשה גרמניה | CAYENNE | 2014 | 28/08/2026 | 15:08:32 |
| 84040803 | יונדאי צ'כיה | TUCSON | 2024 | 28/08/2026 | 15:08:31 |
| 5903664 | סיטרואן צרפת | C4 | 2014 | 28/08/2026 | 15:08:27 |
| 49986502 | מרצדס בנץ גרמנ | - | 2021 | 28/08/2026 | 15:08:25 |
| 85325703 | מזדה יפן | MAZDA CX-5 | 2024 | 28/08/2026 | 15:08:22 |
| 2666384 | רנו צרפת | KANGOO | 2017 | 28/08/2026 | 15:08:16 |
| 61692502 | טסלה סין | MODEL 3 | 2021 | 28/08/2026 | 15:08:10 |
| 92038801 | מרצדס צרפת | CITAN | 2017 | 28/08/2026 | 15:08:07 |
| 1017010 | טויוטה יפן | COROLLA | 2001 | 28/08/2026 | 15:08:07 |
| 20434503 | מ.ג סין | MG5 | 2024 | 28/08/2026 | 15:08:06 |
| 1065074 | מרצדס גרמניה | C200 CGI | 2011 | 28/08/2026 | 15:08:05 |
| 9700778 | מרכז הגרורים | - | 2016 | 28/08/2026 | 15:08:02 |
| 6264639 | יונדאי טורקיה | I20 | 2016 | 28/08/2026 | 15:08:00 |
| 22599702 | טויוטה יפן | PRIUS PLUS | 2020 | 28/08/2026 | 15:07:58 |
| 5870870 | הונדה בריטניה | CIVIC | 2009 | 28/08/2026 | 15:07:58 |
| 4370378 | הונדה יפן | JAZZ HYBRID | 2012 | 28/08/2026 | 15:07:56 |
| 1699967 | אלפא רומיאו איטליה | ALFA GIULIETTA | 2011 | 28/08/2026 | 15:07:55 |
| 71242602 | טויוטה טורקיה | COROLLA SDN HSD | 2021 | 28/08/2026 | 15:07:55 |
| 1072164 | איסוזו תאילנד | PICK-UP | 2008 | 28/08/2026 | 15:07:54 |
| 4238739 | פיג'ו צרפת | 508 | 2016 | 28/08/2026 | 15:07:52 |
| 17038001 | מיצובישי יפן | OUTLANDER | 2018 | 28/08/2026 | 15:07:50 |
| 4304000 | מרצדס בנץ גרמנ | - | 1995 | 28/08/2026 | 15:07:50 |
| 1131628 | קוואסאקי יפן | - | 2016 | 28/08/2026 | 15:07:50 |
| 7648579 | טויוטה טורקיה | VERSO | 2012 | 28/08/2026 | 15:07:48 |
| 74677702 | מזארטי איטליה | LAVANTE | 2022 | 28/08/2026 | 15:07:47 |
| 9131287 | פיג'ו צרפת | 3008 | 2017 | 28/08/2026 | 15:07:45 |
| 81504102 | קיה קוריאה הדרומית | PICANTO | 2022 | 28/08/2026 | 15:07:45 |
| 9321631 | רנו טורקיה | FLUENCE | 2014 | 28/08/2026 | 15:07:44 |
| 15695501 | יונדאי קוריאה הדרומית | IONIQ HYBRID | 2017 | 28/08/2026 | 15:07:43 |
| 4444917 | הונדה יפן | CIVIC | 1999 | 28/08/2026 | 15:07:42 |
| 35894101 | פיאט איטליה | - | 2017 | 28/08/2026 | 15:07:41 |
| 7382954 | מזדה יפן | MAZDA 3 | 2015 | 28/08/2026 | 15:07:40 |
| 2896238 | פולקסווגן גרמנ | - | 2016 | 28/08/2026 | 15:07:38 |
| 5375858 | פורשה גרמניה | CAYENNE | 2014 | 28/08/2026 | 15:07:36 |
| 5862463 | דימלרקריזלר-גר | - | 2008 | 28/08/2026 | 15:07:36 |
| 4633452 | רנו צרפת | - | 2013 | 28/08/2026 | 15:07:36 |
| 47844701 | איסוזו תאילנד | PICK-UP | 2019 | 28/08/2026 | 15:07:33 |
| 5711155 | מרצדס גרמניה | C43 AMG | 2017 | 28/08/2026 | 15:07:30 |
| 9428855 | שברולט ארהב" | - | 1978 | 28/08/2026 | 15:07:30 |
| 48138801 | שברולט ארהב" | - | 2019 | 28/08/2026 | 15:07:28 |
| 1040864 | איסוזו תאילנד | PICK-UP | 2008 | 28/08/2026 | 15:07:26 |
| 4291811 | יונדאי טורקיה | I20 | 2013 | 28/08/2026 | 15:07:26 |
| 9199884 | סוזוקי הונגריה | SX4 CROSSOVER | 2016 | 28/08/2026 | 15:07:25 |
| 44435702 | סקודה צ'כיה | SUPERB FL | 2021 | 28/08/2026 | 15:07:24 |
| 1048013 | איווקו איטליה | - | 2007 | 28/08/2026 | 15:07:22 |
| 4860215 | מיצובישי יפן | - | 2001 | 28/08/2026 | 15:07:20 |
| 44386003 | קיה קוריאה הדרומית | PICANTO | 2023 | 28/08/2026 | 15:07:18 |
| 5375858 | פורשה גרמניה | CAYENNE | 2014 | 28/08/2026 | 15:07:18 |
| 5407363 | סוזוקי-יפן | - | 2007 | 28/08/2026 | 15:07:16 |
| 1732864 | מזדה יפן | MAZDA 5 | 2008 | 28/08/2026 | 15:07:16 |
| 59225201 | פורשה גרמניה | 718 BOXSTER | 2019 | 28/08/2026 | 15:07:15 |
| 15695501 | יונדאי קוריאה הדרומית | IONIQ HYBRID | 2017 | 28/08/2026 | 15:07:14 |
| 5235076 | מרצדס ארהב" | ML350CDI | 2011 | 28/08/2026 | 15:07:10 |
| 1048062 | טויוטה יפן | RAV 4 | 2007 | 28/08/2026 | 15:07:05 |
| 1174837 | טויוטה תאילנד | HILUX | 2016 | 28/08/2026 | 15:07:04 |
| 3087964 | סקודה צ'כיה | ROOMSTER | 2008 | 28/08/2026 | 15:07:04 |
| 8738137 | ניסאן יפן | X-TRAIL | 2016 | 28/08/2026 | 15:07:00 |
| 45342101 | טויוטה טורקיה | C-HR HYBRID | 2018 | 28/08/2026 | 15:06:58 |
| 15695501 | יונדאי קוריאה הדרומית | IONIQ HYBRID | 2017 | 28/08/2026 | 15:06:56 |
| 7412172 | ניסאן בריטניה | MICRA | 2010 | 28/08/2026 | 15:06:54 |
| 48113601 | שברולט ארהב" | TRAVERSE | 2019 | 28/08/2026 | 15:06:53 |
| 2920068 | סיטרואן צרפת | C5 | 2009 | 28/08/2026 | 15:06:52 |
| 9150713 | פיאט פולין | FIAT 500 1.2 | 2012 | 28/08/2026 | 15:06:50 |
| 1260913 | שברולט ארהב" | MALIBU LT | 2012 | 28/08/2026 | 15:06:49 |
| 8843013 | יונדאי קוריאה הדרומית | SANTA FE | 2012 | 28/08/2026 | 15:06:49 |
| 1720973 | מיצובישי יפן | LANCER | 2010 | 28/08/2026 | 15:06:44 |
| 5880030 | טויוטה טורקיה | COROLLA | 2014 | 28/08/2026 | 15:06:42 |
| 66370802 | טויוטה יפן | LAND CRUISER | 2021 | 28/08/2026 | 15:06:41 |
| 19821803 | מרצדס בנץ גרמנ | - | 2023 | 28/08/2026 | 15:06:40 |
| 16089401 | יונדאי קוריאה הדרומית | IONIQ HYBRID | 2018 | 28/08/2026 | 15:06:39 |
| 4175760 | יונדאי קוריאה | ACCENT | 2006 | 28/08/2026 | 15:06:39 |
| 73040901 | מרצדס הונגריה | CLA180 | 2019 | 28/08/2026 | 15:06:38 |
| 7531469 | דימלרקריזלר-גר | - | 2011 | 28/08/2026 | 15:06:37 |
| 15695501 | יונדאי קוריאה הדרומית | IONIQ HYBRID | 2017 | 28/08/2026 | 15:06:37 |
| 4232962 | מזדה יפן | MAZDA 3 | 2007 | 28/08/2026 | 15:06:36 |
| 59400904 | לקסוס יפן | LEXUS LBX | 2026 | 28/08/2026 | 15:06:35 |
| 3738856 | דאף אנגליה | - | 2006 | 28/08/2026 | 15:06:34 |
| 7594852 | הונדה בריטניה | CIVIC | 2013 | 28/08/2026 | 15:06:33 |
| 59915502 | פורד ארהב" | MUSTANG | 2021 | 28/08/2026 | 15:06:32 |
| 2203363 | מיצובישי תאילנד | L 200 | 2007 | 28/08/2026 | 15:06:30 |
| 3939975 | פורד ספרד | FOCUS | 2011 | 28/08/2026 | 15:06:29 |
| 59876501 | ב מ וו גרמניה | 330E IPERFORMAN | 2019 | 28/08/2026 | 15:06:29 |
| 6482172 | מיצובישי יפן | GRANDIS | 2010 | 28/08/2026 | 15:06:28 |
| 66542002 | טויוטה יפן | RAV 4 HYBRID | 2021 | 28/08/2026 | 15:06:26 |
| 63533001 | אוובוס ספרד | - | 2019 | 28/08/2026 | 15:06:26 |
| 3311766 | מיצובישי יפן | LANCER | 2008 | 28/08/2026 | 15:06:24 |
| 8755173 | יונדאי צ'כיה | I30 | 2010 | 28/08/2026 | 15:06:24 |
| 9900067 | פורשה גרמניה | BOXTER S | 2008 | 28/08/2026 | 15:06:22 |
| 2079965 | מזדה יפן | MAZDA 5 | 2008 | 28/08/2026 | 15:06:20 |
| 7463310 | הונדה יפן | CIVIC | 2001 | 28/08/2026 | 15:06:19 |
| 61079301 | מזדה יפן | MAZDA 3 | 2020 | 28/08/2026 | 15:06:18 |
| 26055203 | טסלה גרמניה | MODEL Y | 2022 | 28/08/2026 | 15:06:18 |
| 7966568 | מזדה יפן | MAZDA 3 | 2010 | 28/08/2026 | 15:06:16 |
| 60904701 | ב מ וו גרמניה | X1 SDRIVE 18I | 2020 | 28/08/2026 | 15:06:15 |
| 8124901 | סיטרואן צרפת | C5 | 2005 | 28/08/2026 | 15:06:14 |
| 5862463 | דימלרקריזלר-גר | - | 2008 | 28/08/2026 | 15:06:14 |
| 8504483 | רנו צרפת | - | 1983 | 28/08/2026 | 15:06:12 |
| 32179603 | גולדן דרגון סי | - | 2023 | 28/08/2026 | 15:06:11 |
| 1209068 | סוזוקי יפן | GRAND VITARA | 2009 | 28/08/2026 | 15:06:09 |
| 1150966 | שברולט ארהב" | TRAILBLAZER | 2008 | 28/08/2026 | 15:06:08 |
| 5949438 | פולקסווגן ספרד | POLO | 2017 | 28/08/2026 | 15:06:06 |
| 32836204 | טסלה סין | MODEL Y | 2025 | 28/08/2026 | 15:06:04 |
| 5290371 | מזדה תאילנד | MAZDA 2 | 2011 | 28/08/2026 | 15:06:04 |
| 6552772 | מיצובישי יפן | PAJERO | 2013 | 28/08/2026 | 15:06:03 |
| 3312154 | רנו טורקיה | FLUENCE | 2014 | 28/08/2026 | 15:06:00 |
| 57142701 | הונדה בריטניה | CIVIC | 2018 | 28/08/2026 | 15:05:59 |
| 4673978 | פיג'ו סלובקיה | 207 | 2011 | 28/08/2026 | 15:05:59 |
| 82128302 | טויוטה טורקיה | COROLLA HSD SDN | 2022 | 28/08/2026 | 15:05:55 |
| 2902470 | טויוטה יפן | COROLLA | 2009 | 28/08/2026 | 15:05:54 |
| 3087964 | סקודה צ'כיה | ROOMSTER | 2008 | 28/08/2026 | 15:05:51 |
| 1123676 | פורד גרמניה | FOCUS | 2013 | 28/08/2026 | 15:05:51 |
| 1031056 | טויוטה בריטניה | COROLLA RUNX | 2003 | 28/08/2026 | 15:05:49 |
| 1161662 | טויוטה יפן | COROLLA | 2007 | 28/08/2026 | 15:05:44 |
| 65494302 | קיה קוריאה הדרומית | NIRO PHEV | 2021 | 28/08/2026 | 15:05:39 |
| 2570866 | יונדאי קוריאה הדרומית | GETZ | 2008 | 28/08/2026 | 15:05:39 |
| 73040901 | מרצדס הונגריה | CLA180 | 2019 | 28/08/2026 | 15:05:38 |
| 1174837 | טויוטה תאילנד | HILUX | 2016 | 28/08/2026 | 15:05:35 |
| 9640531 | רנו ספרד | CAPTUR | 2014 | 28/08/2026 | 15:05:29 |
| 5862463 | דימלרקריזלר-גר | - | 2008 | 28/08/2026 | 15:05:24 |
| 28193203 | מזדה יפן | MAZDA CX-5 | 2022 | 28/08/2026 | 15:05:24 |
| 5012930 | טויוטה טורקיה | COROLLA | 2014 | 28/08/2026 | 15:05:19 |
| 1284061 | איסוזו תאילנד | PICK-UP | 2007 | 28/08/2026 | 15:05:19 |
| 3231632 | איסוזו יפן | - | 2014 | 28/08/2026 | 15:05:16 |
| 3087964 | סקודה צ'כיה | ROOMSTER | 2008 | 28/08/2026 | 15:05:11 |
| 1711570 | קואנג יאנג טיו | - | 2010 | 28/08/2026 | 15:05:11 |
| 4954861 | פורד תורכיה | TOURNEO CONNECT | 2007 | 28/08/2026 | 15:05:08 |
| 1208335 | רנו ספרד | CLIO B | 2001 | 28/08/2026 | 15:05:06 |
| 3932915 | תומקאר ישראל | - | 2000 | 28/08/2026 | 15:05:03 |
| 3087964 | סקודה צ'כיה | ROOMSTER | 2008 | 28/08/2026 | 15:05:03 |
| 7125779 | טויוטה בריטניה | AVENSIS | 2012 | 28/08/2026 | 15:05:01 |
| 3800838 | אאודי ספרד | Q3 | 2016 | 28/08/2026 | 15:04:56 |
| 54046401 | מרצדס בנץ גרמנ | - | 2019 | 28/08/2026 | 15:04:56 |
| 3372118 | אופל ספרד | קורסה GNIWS,4.1, 5 ד | 1996 | 28/08/2026 | 15:04:55 |
| 5862463 | דימלרקריזלר-גר | - | 2008 | 28/08/2026 | 15:04:54 |
| 73160101 | יונדאי טורקיה | I20 | 2019 | 28/08/2026 | 15:04:54 |
| 1166014 | ניסאן ספרד | TERRANO | 2005 | 28/08/2026 | 15:04:53 |
| 6896412 | ניסאן בריטניה | JUKE | 2013 | 28/08/2026 | 15:04:53 |
| 4864939 | פיג'ו סלובקיה | 208 | 2016 | 28/08/2026 | 15:04:52 |
| 80388302 | שברולט ארהב" | TRAVERSE | 2023 | 28/08/2026 | 15:04:51 |
| 7141132 | סוזוקי הונגריה | SX4 CROSSOVER | 2014 | 28/08/2026 | 15:04:51 |
| 45841303 | טויוטה יפן | TOYOTA BZ4X | 2023 | 28/08/2026 | 15:04:50 |
| 80715403 | ב מ וו ארהב" | XM | 2024 | 28/08/2026 | 15:04:50 |
| 3710588 | אאודי גרמניה | - | 1988 | 28/08/2026 | 15:04:49 |
| 3304461 | סאן יאנג טיואן | - | 2007 | 28/08/2026 | 15:04:48 |
| 3087964 | סקודה צ'כיה | ROOMSTER | 2008 | 28/08/2026 | 15:04:48 |
| 5065632 | טויוטה יפן | RAV 4 | 2015 | 28/08/2026 | 15:04:47 |
| 3932915 | תומקאר ישראל | - | 2000 | 28/08/2026 | 15:04:46 |
| 84189901 | יונדאי קוריאה הדרומית | ELANTRA | 2019 | 28/08/2026 | 15:04:45 |
| 5827162 | סאן יאנג טיואן | - | 2007 | 28/08/2026 | 15:04:44 |
| 17701604 | קיה קוריאה הדרומית | PICANTO | 2025 | 28/08/2026 | 15:04:42 |
| 47479802 | איסוזו תאילנד | D-MAX | 2021 | 28/08/2026 | 15:04:41 |
| 3932915 | תומקאר ישראל | - | 2000 | 28/08/2026 | 15:04:40 |
| 1449634 | מיצובישי יפן | OUTLANDER | 2015 | 28/08/2026 | 15:04:39 |
| 2880730 | יונדאי צ'כיה | I30 | 2014 | 28/08/2026 | 15:04:38 |
| 60448101 | ב מ וו אוסטריה | 540I | 2019 | 28/08/2026 | 15:04:36 |